Weather History for Limnos, Greece

Change the Weather History Date:

Saturday, February 9, 2013

  Actual Average Record
Temperature  
Mean Temperature 50 °F -  
Max Temperature 59 °F 53 °F 62 °F (2001)
Min Temperature 40 °F 41 °F 24 °F (2012)
Degree Days  
Heating Degree Days 16    
Moisture  
Dew Point 42 °F    
Average Humidity 77    
Maximum Humidity 93    
Minimum Humidity 44    
Precipitation  
Precipitation 0.00 in 0.06 in - ()
Sea Level Pressure  
Sea Level Pressure 29.81 in    
Wind  
Wind Speed 4 mph ()    
Max Wind Speed 13 mph    
Max Gust Speed -    
Visibility 6.2 miles    
Events Rain , Thunderstorm    
Averages and records for this station are not official NWS values.
T = Trace of Precipitation, MM = Missing Value Source: Averaged Metar Reports

Daily Weather History Graph

Daily Weather History Graph

Search for Another Location

Airport:

Trip Planner

Search our weather history database for the weather conditions in past years. The results will help you decide how hot, cold, wet, or windy it might be!

Date:

Astronomy

Feb. 09, 2013 Rise Set
Actual Time 7:19 AM EET 5:47 PM EET
Civil Twilight 6:51 AM EET 6:16 PM EET
Nautical Twilight 6:19 AM EET 6:48 PM EET
Astronomical Twilight 5:47 AM EET 7:19 PM EET
Moon 6:17 AM EET (2/9) 5:08 PM EET (2/9)
Length of Visible Light 11h 25m
Length of Day
10h 28m
Waning Crescent, 1% of the Moon is Illuminated
Feb 9
Waning Crescent
Feb 10
New
Feb 17
First Quarter
Feb 25
Full
Mar 4
Last Quarter

Hourly Weather History & Observations

Time (EET) Temp. Windchill Dew Point Humidity Pressure Visibility Wind Dir Wind Speed Gust Speed Precip Events Conditions
12:20 AM 48.2 °F - 42.8 °F 82% 29.71 in 6.2 mi NW 4.6 mph - N/A Rain , Thunderstorm Light Thunderstorms and Rain
12:50 AM 46.4 °F 45.2 °F 42.8 °F 87% 29.71 in 6.2 mi Variable 3.5 mph - N/A   Mostly Cloudy
1:50 AM 44.6 °F - 41.0 °F 87% 29.74 in 6.2 mi Calm Calm - N/A   Scattered Clouds
2:00 AM 44 °F - 41 °F 84% 29.74 in 6 mi Calm Calm - -   Partly Cloudy
2:20 AM 42.8 °F - 39.2 °F 87% 29.74 in - Variable 2.3 mph - N/A   Unknown
2:50 AM 41.0 °F - 39.2 °F 93% 29.74 in - Calm Calm - N/A   Unknown
3:20 AM 41.0 °F - 39.2 °F 93% 29.74 in - Variable 1.2 mph - N/A   Unknown
3:50 AM 41.0 °F - 39.2 °F 93% 29.74 in - Calm Calm - N/A   Unknown
4:20 AM 41.0 °F - 39.2 °F 93% 29.74 in - Calm Calm - N/A   Unknown
4:50 AM 41.0 °F - 39.2 °F 93% 29.77 in - Calm Calm - N/A   Unknown
5:20 AM 42.8 °F - 41.0 °F 93% 29.77 in - Variable 2.3 mph - N/A   Unknown
5:50 AM 48.2 °F - 42.8 °F 82% 29.77 in 6.2 mi SSE 11.5 mph - N/A   Mostly Cloudy
6:20 AM 48.2 °F - 42.8 °F 82% 29.77 in 6.2 mi SSE 8.1 mph - N/A   Mostly Cloudy
6:50 AM 48.2 °F - 44.6 °F 87% 29.80 in 6.2 mi South 11.5 mph - N/A Rain Light Rain
7:20 AM 46.4 °F 40.7 °F 42.8 °F 87% 29.80 in 6.2 mi SW 12.7 mph - N/A   Mostly Cloudy
7:50 AM 44.6 °F 43.1 °F 41.0 °F 87% 29.80 in 6.2 mi Variable 3.5 mph - N/A   Mostly Cloudy
8:00 AM 45 °F - 41 °F 82% 29.81 in 6 mi 3.5 mph - -   Partly Cloudy
8:20 AM 46.4 °F - 42.8 °F 87% 29.80 in 6.2 mi Calm Calm - N/A   Mostly Cloudy
8:50 AM 48.2 °F - 44.6 °F 87% 29.83 in 6.2 mi Calm Calm - N/A   Mostly Cloudy
9:20 AM 48.2 °F - 44.6 °F 87% 29.83 in 6.2 mi Calm Calm - N/A   Mostly Cloudy
9:50 AM 50.0 °F - 46.4 °F 87% 29.83 in 6.2 mi Calm Calm - N/A   Mostly Cloudy
10:20 AM 53.6 °F - 46.4 °F 77% 29.83 in 6.2 mi Variable 3.5 mph - N/A   Mostly Cloudy
10:50 AM 55.4 °F - 46.4 °F 72% 29.83 in 6.2 mi South 4.6 mph - N/A   Scattered Clouds
11:20 AM 57.2 °F - 46.4 °F 67% 29.83 in 6.2 mi South 8.1 mph - N/A   Scattered Clouds
11:50 AM 57.2 °F - 44.6 °F 63% 29.83 in 6.2 mi South 6.9 mph - N/A   Scattered Clouds
12:20 PM 59.0 °F - 44.6 °F 59% 29.83 in 6.2 mi South 6.9 mph - N/A   Scattered Clouds
12:50 PM 59.0 °F - 42.8 °F 55% 29.83 in 6.2 mi SW 12.7 mph - N/A   Scattered Clouds
1:20 PM 57.2 °F - 42.8 °F 59% 29.83 in 6.2 mi SW 11.5 mph - N/A   Scattered Clouds
1:50 PM 59.0 °F - 42.8 °F 55% 29.83 in 6.2 mi South 10.4 mph - N/A   Scattered Clouds
2:00 PM 59 °F - 43 °F 44% 29.83 in 6 mi South 10.4 mph - -   Partly Cloudy
2:20 PM 59.0 °F - 37.4 °F 45% 29.83 in 6.2 mi SW 11.5 mph - N/A   Scattered Clouds
2:50 PM 57.2 °F - 41.0 °F 55% 29.83 in 6.2 mi WSW 12.7 mph - N/A   Scattered Clouds
3:20 PM 57.2 °F - 41.0 °F 55% 29.83 in 6.2 mi SSW 11.5 mph - N/A   Scattered Clouds
3:50 PM 57.2 °F - 41.0 °F 55% 29.83 in 6.2 mi SSW 11.5 mph - N/A   Scattered Clouds
4:20 PM 57.2 °F - 41.0 °F 55% 29.83 in 6.2 mi SSW 8.1 mph - N/A   Scattered Clouds
4:50 PM 55.4 °F - 39.2 °F 54% 29.83 in 6.2 mi SW 6.9 mph - N/A   Scattered Clouds
5:20 PM 53.6 °F - 41.0 °F 62% 29.83 in 6.2 mi SW 4.6 mph - N/A   Scattered Clouds
5:50 PM 51.8 °F - 41.0 °F 67% 29.83 in 6.2 mi SW 4.6 mph - N/A   Scattered Clouds
6:20 PM 50.0 °F - 41.0 °F 71% 29.83 in 6.2 mi Variable 3.5 mph - N/A   Scattered Clouds
6:50 PM 48.2 °F - 41.0 °F 76% 29.86 in 6.2 mi Variable 3.5 mph - N/A   Mostly Cloudy
7:20 PM 48.2 °F - 41.0 °F 76% 29.86 in 6.2 mi Variable 3.5 mph - N/A   Mostly Cloudy
7:50 PM 46.4 °F 45.2 °F 41.0 °F 81% 29.86 in 6.2 mi Variable 3.5 mph - N/A   Mostly Cloudy
8:00 PM 47 °F - 41 °F 73% 29.86 in 6 mi 3.5 mph - -   Scattered Clouds
8:20 PM 44.6 °F - 41.0 °F 87% 29.86 in - Variable 1.2 mph - N/A   Unknown
8:50 PM 46.4 °F - 41.0 °F 81% 29.86 in - Variable 1.2 mph - N/A   Unknown
9:20 PM 44.6 °F - 41.0 °F 87% 29.86 in - Variable 1.2 mph - N/A   Unknown
9:50 PM 44.6 °F - 41.0 °F 87% 29.86 in - Variable 1.2 mph - N/A   Unknown
10:20 PM 42.8 °F - 41.0 °F 93% 29.83 in - Variable 1.2 mph - N/A   Unknown
10:50 PM 42.8 °F - 41.0 °F 93% 29.83 in - Variable 2.3 mph - N/A   Unknown
11:20 PM 44.6 °F - 41.0 °F 87% 29.83 in - Variable 2.3 mph - N/A   Unknown
11:50 PM 44.6 °F 43.1 °F 41.0 °F 87% 29.83 in - Variable 3.5 mph - N/A   Unknown